• In Spain
  • List of Countries
  • For 7 days
  • Water Temperature
  • Satellite Maps
  • Weather Map
  • Weather Widgets
  • user-avatar
    Login

    Hourly Weather San Luis

    Today, 17 October, Wednesday

    Time Temperature Precipitation Wind Pressure Humidity
    00:00 +22°C° 0 mm 3 mps 691 mmHg 43%
    01:00 +21°C° 0 mm 3 mps 691 mmHg 40%
    02:00 +21°C° 0 mm 3 mps 691 mmHg 37%
    03:00 +21°C° 0 mm 3 mps 691 mmHg 36%
    04:00 +20°C° 0 mm 4 mps 691 mmHg 35%
    05:00 +20°C° 0 mm 4 mps 691 mmHg 34%
    06:00 +21°C° 0 mm 4 mps 692 mmHg 32%
    07:00 +22°C° 0 mm 4 mps 693 mmHg 30%
    08:00 +25°C° 0 mm 3 mps 693 mmHg 28%
    09:00 +27°C° 0 mm 4 mps 694 mmHg 24%
    10:00 +28°C° 0 mm 5 mps 694 mmHg 19%
    11:00 +30°C° 0 mm 7 mps 694 mmHg 14%
    12:00 +32°C° 0 mm 7 mps 694 mmHg 13%
    13:00 +32°C° 0 mm 7 mps 694 mmHg 11%
    14:00 +33°C° 0 mm 8 mps 693 mmHg 10%
    15:00 +33°C° 0 mm 7 mps 693 mmHg 9%
    16:00 +33°C° 0 mm 6 mps 693 mmHg 8%
    17:00 +33°C° 0 mm 5 mps 692 mmHg 7%
    18:00 +30°C° 0 mm 4 mps 692 mmHg 8%
    19:00 +27°C° 0 mm 3 mps 692 mmHg 9%
    20:00 +25°C° 0 mm 2 mps 692 mmHg 11%
    21:00 +24°C° 0 mm 3 mps 693 mmHg 11%
    22:00 +24°C° 0 mm 3 mps 693 mmHg 11%
    23:00 +22°C° 0 mm 4 mps 694 mmHg 11%

    Tomorrow, 18 October, Thursday

    Time Temperature Precipitation Wind Pressure Humidity
    00:00 +21°C° 0 mm 4 mps 694 mmHg 18%
    01:00 +20°C° 0 mm 4 mps 694 mmHg 24%
    02:00 +19°C° 0 mm 4 mps 694 mmHg 31%
    03:00 +18°C° 0 mm 4 mps 694 mmHg 43%
    04:00 +17°C° 0 mm 4 mps 695 mmHg 56%
    05:00 +16°C° 0 mm 3 mps 695 mmHg 68%
    06:00 +18°C° 0 mm 4 mps 696 mmHg 67%
    07:00 +19°C° 0 mm 4 mps 697 mmHg 67%
    08:00 +20°C° 0 mm 4 mps 698 mmHg 66%
    09:00 +21°C° 0 mm 4 mps 698 mmHg 62%
    10:00 +22°C° 0 mm 5 mps 699 mmHg 58%
    11:00 +23°C° 0 mm 5 mps 699 mmHg 54%
    12:00 +25°C° 0 mm 5 mps 699 mmHg 51%
    13:00 +26°C° 0 mm 5 mps 699 mmHg 48%
    14:00 +27°C° 0 mm 6 mps 699 mmHg 46%
    15:00 +27°C° 0.1 mm 6 mps 699 mmHg 49%
    16:00 +26°C° 0.1 mm 6 mps 699 mmHg 53%
    17:00 +26°C° 0.1 mm 6 mps 698 mmHg 56%
    18:00 +24°C° 0.1 mm 6 mps 699 mmHg 62%
    19:00 +22°C° 0.1 mm 6 mps 699 mmHg 68%
    20:00 +21°C° 0.1 mm 6 mps 700 mmHg 75%
    21:00 +21°C° 0.1 mm 6 mps 700 mmHg 78%
    22:00 +20°C° 0.1 mm 6 mps 700 mmHg 80%
    23:00 +20°C° 0.1 mm 6 mps 701 mmHg 83%

    Day after tomorrow, 19 October, Friday

    Time Temperature Precipitation Wind Pressure Humidity
    00:00 +20°C° 0.1 mm 5 mps 700 mmHg 84%
    01:00 +19°C° 0.1 mm 5 mps 700 mmHg 86%
    02:00 +19°C° 0.1 mm 4 mps 700 mmHg 87%
    03:00 +19°C° 0.1 mm 4 mps 699 mmHg 87%
    04:00 +19°C° 0.1 mm 4 mps 699 mmHg 87%
    05:00 +18°C° 0.1 mm 3 mps 699 mmHg 87%
    06:00 +20°C° 0.1 mm 3 mps 700 mmHg 80%
    07:00 +21°C° 0.1 mm 3 mps 700 mmHg 73%
    08:00 +22°C° 0.1 mm 3 mps 701 mmHg 66%
    09:00 +25°C° 0.3 mm 4 mps 701 mmHg 59%
    10:00 +27°C° 0.3 mm 4 mps 701 mmHg 52%
    11:00 +29°C° 0.3 mm 5 mps 701 mmHg 45%
    12:00 +29°C° 0.3 mm 5 mps 700 mmHg 45%
    13:00 +29°C° 0.3 mm 5 mps 699 mmHg 46%
    14:00 +29°C° 0.3 mm 5 mps 699 mmHg 47%
    15:00 +28°C° 0.4 mm 5 mps 698 mmHg 49%
    16:00 +28°C° 0.4 mm 5 mps 698 mmHg 51%
    17:00 +27°C° 0.4 mm 5 mps 697 mmHg 53%
    18:00 +26°C° 0.6 mm 5 mps 698 mmHg 58%
    19:00 +25°C° 0.6 mm 5 mps 698 mmHg 64%
    20:00 +22°C° 0.6 mm 4 mps 698 mmHg 69%
    21:00 +22°C° 2.3 mm 4 mps 698 mmHg 73%
    22:00 +21°C° 2.3 mm 4 mps 698 mmHg 76%
    23:00 +21°C° 2.3 mm 4 mps 698 mmHg 80%

    20 October, Saturday

    Time Temperature Precipitation Wind Pressure Humidity
    00:00 +20°C° 1.3 mm 4 mps 698 mmHg 80%
    01:00 +20°C° 1.3 mm 4 mps 697 mmHg 81%
    02:00 +20°C° 1.3 mm 3 mps 697 mmHg 81%
    03:00 +20°C° 1.1 mm 3 mps 696 mmHg 82%
    04:00 +20°C° 1.1 mm 4 mps 696 mmHg 82%
    05:00 +20°C° 1.1 mm 4 mps 696 mmHg 83%
    06:00 +21°C° 0.5 mm 4 mps 696 mmHg 78%
    07:00 +22°C° 0.5 mm 5 mps 697 mmHg 74%
    08:00 +23°C° 0.5 mm 6 mps 697 mmHg 69%
    09:00 +24°C° 1.1 mm 6 mps 697 mmHg 66%
    10:00 +26°C° 1.1 mm 7 mps 697 mmHg 62%
    11:00 +27°C° 1.1 mm 7 mps 697 mmHg 59%
    12:00 +28°C° 0.8 mm 7 mps 696 mmHg 55%
    13:00 +29°C° 0.8 mm 6 mps 696 mmHg 51%
    14:00 +30°C° 0.8 mm 6 mps 695 mmHg 48%
    15:00 +29°C° 0.2 mm 5 mps 695 mmHg 47%
    16:00 +29°C° 0.2 mm 4 mps 694 mmHg 47%
    17:00 +29°C° 0.2 mm 3 mps 694 mmHg 46%
    18:00 +28°C° 0.2 mm 3 mps 694 mmHg 53%
    19:00 +26°C° 0.2 mm 4 mps 695 mmHg 60%
    20:00 +25°C° 0.2 mm 4 mps 695 mmHg 67%
    21:00 +23°C° 0.4 mm 4 mps 695 mmHg 69%
    22:00 +23°C° 0.4 mm 4 mps 695 mmHg 72%
    23:00 +22°C° 0.4 mm 5 mps 695 mmHg 75%

    21 October, Sunday

    Time Temperature Precipitation Wind Pressure Humidity
    00:00 +22°C° 2 mm 4 mps 695 mmHg 75%
    01:00 +22°C° 2 mm 4 mps 694 mmHg 76%
    02:00 +21°C° 2 mm 3 mps 694 mmHg 76%
    03:00 +21°C° 1 mm 3 mps 694 mmHg 78%
    04:00 +20°C° 1 mm 3 mps 694 mmHg 81%
    05:00 +19°C° 1 mm 4 mps 695 mmHg 83%
    06:00 +19°C° 0.4 mm 4 mps 695 mmHg 82%
    07:00 +19°C° 0.4 mm 4 mps 695 mmHg 81%
    08:00 +20°C° 0.4 mm 4 mps 696 mmHg 80%
    09:00 +20°C° 0.1 mm 4 mps 696 mmHg 76%
    10:00 +21°C° 0.1 mm 4 mps 696 mmHg 72%
    11:00 +21°C° 0.1 mm 4 mps 696 mmHg 68%
    12:00 +22°C° 0 mm 4 mps 696 mmHg 63%
    13:00 +23°C° 0 mm 5 mps 695 mmHg 59%
    14:00 +25°C° 0 mm 5 mps 695 mmHg 55%
    15:00 +24°C° 0 mm 6 mps 695 mmHg 57%
    16:00 +23°C° 0 mm 6 mps 695 mmHg 58%
    17:00 +23°C° 0 mm 6 mps 694 mmHg 60%
    18:00 +22°C° 0 mm 6 mps 695 mmHg 65%
    19:00 +21°C° 0 mm 5 mps 695 mmHg 71%
    20:00 +19°C° 0 mm 5 mps 696 mmHg 76%
    21:00 +19°C° 0 mm 5 mps 696 mmHg 78%
    22:00 +19°C° 0 mm 5 mps 696 mmHg 80%
    23:00 +17°C° 0 mm 5 mps 697 mmHg 82%

    22 October, Monday

    Time Temperature Precipitation Wind Pressure Humidity
    00:00 +17°C° 0.1 mm 6 mps 697 mmHg 83%
    01:00 +17°C° 0.1 mm 6 mps 697 mmHg 84%
    02:00 +16°C° 0.1 mm 7 mps 697 mmHg 85%
    03:00 +16°C° 0.1 mm 7 mps 697 mmHg 84%
    04:00 +15°C° 0.1 mm 7 mps 698 mmHg 82%
    05:00 +15°C° 0.1 mm 8 mps 698 mmHg 81%
    06:00 +15°C° 0.1 mm 8 mps 699 mmHg 77%
    07:00 +15°C° 0.1 mm 8 mps 699 mmHg 73%
    08:00 +13°C° 0.1 mm 8 mps 700 mmHg 69%
    09:00 +15°C° 0 mm 8 mps 700 mmHg 63%
    10:00 +15°C° 0 mm 8 mps 701 mmHg 57%
    11:00 +16°C° 0 mm 8 mps 701 mmHg 51%
    12:00 +16°C° 0 mm 8 mps 700 mmHg 48%
    13:00 +17°C° 0 mm 8 mps 700 mmHg 45%
    14:00 +18°C° 0 mm 8 mps 700 mmHg 42%
    15:00 +18°C° 0 mm 8 mps 700 mmHg 43%
    16:00 +17°C° 0 mm 9 mps 699 mmHg 44%
    17:00 +17°C° 0 mm 9 mps 699 mmHg 45%
    18:00 +16°C° 0 mm 9 mps 700 mmHg 49%
    19:00 +13°C° 0 mm 8 mps 700 mmHg 53%
    20:00 +12°C° 0 mm 8 mps 701 mmHg 57%
    21:00 +12°C° 0 mm 7 mps 701 mmHg 58%
    22:00 +12°C° 0 mm 7 mps 701 mmHg 60%
    23:00 +11°C° 0 mm 6 mps 702 mmHg 61%
    Show more